FW3821 Weather Reports


time (UTC)temp
C
wind
direction
speed
KPH
gust
KPH
rain 1hr
cm
rain 24hr
cm
rain mn
cm
humidity
%
barometer
mb
20260504081542 5 137 1.6 3.2 0.00 0.00 0.00 68 1011.1
20260504050024 5 139 0.0 4.8 0.00 0.00 0.00 63 1011.5
20260504044523 5 138 1.6 4.8 0.00 0.00 0.00 61 1011.7
20260504043023 5 103 1.6 4.8 0.00 0.00 0.00 62 1011.7
20260504041621 5 133 1.6 3.2 0.00 0.00 0.00 62 1011.6
20260504040019 5 147 1.6 3.2 0.00 0.00 0.00 61 1011.5
20260504034534 5 118 1.6 3.2 0.00 0.00 0.00 61 1011.4
20260504033023 5 165 1.6 3.2 0.00 0.00 0.00 62 1011.2
20260504031517 5 138 0.0 1.6 0.00 0.00 0.00 60 1011.1
20260504030018 6 8 0.0 4.8 0.00 0.00 0.00 55 1011.1
20260504024516 6 65 0.0 4.8 0.00 0.00 0.00 52 1011.1
20260504023015 6 304 0.0 8.0 0.00 0.00 0.00 52 1011.2
20260504021514 6 162 0.0 6.4 0.00 0.00 0.00 52 1011.1
20260504020014 6 309 1.6 6.4 0.00 0.00 0.00 50 1011.0
20260504014518 6 40 0.0 4.8 0.00 0.00 0.00 48 1010.7
20260504013013 6 257 0.0 4.8 0.00 0.00 0.00 48 1010.7
20260504011513 6 303 0.0 4.8 0.00 0.00 0.00 47 1010.7
20260504010012 6 177 0.0 6.4 0.00 0.00 0.00 46 1010.6
20260504004511 6 310 0.0 3.2 0.00 0.00 0.00 44 1010.3
20260504003010 6 42 0.0 1.6 0.00 0.00 0.00 42 1010.0
20260504001511 6 253 0.0 3.2 0.00 0.00 0.00 41 1009.8
20260504000010 7 277 0.0 8.0 0.00 0.00 0.00 41 1009.6
20260503234511 7 252 1.6 8.0 0.00 0.00 0.00 41 1009.5
20260503233008 7 34 0.0 11.3 0.00 0.00 0.00 44 1009.4
20260503231511 8 356 1.6 16.1 0.00 0.00 0.00 43 1009.4
20260503230008 8 34 6.4 16.1 0.00 0.00 0.00 39 1009.3
20260503224507 8 304 0.0 8.0 0.00 0.00 0.00 42 1009.2
20260503223006 8 321 3.2 17.7 0.00 0.00 0.00 41 1009.1
20260503221505 8 33 1.6 12.9 0.00 0.00 0.00 42 1009.2
20260503220009 8 204 1.6 9.7 0.00 0.00 0.00 43 1009.2
20260503214505 8 252 4.8 22.5 0.00 0.00 0.00 43 1009.2
20260503213005 8 330 3.2 14.5 0.00 0.00 0.00 44 1009.1
20260503211506 8 312 3.2 17.7 0.00 0.00 0.00 43 1009.1
20260503210012 7 302 3.2 17.7 0.00 0.00 0.00 45 1009.0
20260503204503 8 31 4.8 9.7 0.00 0.00 0.00 42 1008.9
20260503203007 9 302 4.8 17.7 0.00 0.00 0.00 42 1008.9
20260503201501 9 21 6.4 16.1 0.00 0.00 0.00 39 1008.8
20260503200002 9 304 3.2 17.7 0.00 0.00 0.00 41 1008.9
20260503194501 8 322 4.8 22.5 0.00 0.00 0.00 41 1009.0
20260503193001 8 351 4.8 16.1 0.00 0.00 0.00 41 1009.0
20260503191606 8 333 3.2 17.7 0.00 0.00 0.00 41 1008.9
20260503190059 9 23 6.4 16.1 0.00 0.00 0.00 41 1009.0
20260503184632 8 10 4.8 22.5 0.00 0.00 0.00 40 1009.0
20260503183106 8 303 4.8 22.5 0.00 0.00 0.00 42 1009.0
20260503181557 8 28 3.2 19.3 0.00 0.00 0.00 42 1009.0
20260503180057 8 276 3.2 19.3 0.00 0.00 0.00 43 1008.9
20260503174610 8 274 6.4 16.1 0.00 0.00 0.00 45 1008.8
20260503173129 8 328 4.8 12.9 0.00 0.00 0.00 45 1009.1
20260503171555 7 319 3.2 19.3 0.00 0.00 0.00 48 1009.2